星链-34609 (STARLINK-34609)

导读

STARLINK-34609是美国SpaceX公司星链星座的卫星,于2025年7月8日发射入轨,属于全球规模最大低轨卫星互联网星座的组成部分。星链项目依托低成本发射与制造优势,已构建覆盖全球多国的卫星网络,为个人和商用客户提供高速低时延互联网接入服务,推动低轨通信技术商业化落地,该卫星将进一步拓展星链服务覆盖范围,提升星座通信容量。

基本信息
目录编号:
64768
目录名称:
STARLINK-34609
国际标识:
2025-147P
轨道中心:
EARTH
卫星名称:
星链-34609
卫星全名:
星链-34609 (STARLINK-34609)
卫星状态:
在轨 (已飞行340 天)
发射日期:
2025-07-08 UTC
国别 :
美国 (US)
星等 :
--
轨道信息
数据来源 国际轨道数据 AOE轨道数据
星历时间 2026-06-13T14:08:17+0800
15小时前
查看轨道信息
2026-06-10T04:00:00+0800
4天前
查看轨道信息
半长轴 6853.326km 6853.416km
偏心率 0.0001168 0.0001467
轨道倾角 53.156° 53.159°
近地点辐角 72.359° 70.092°
升交点赤经 148.894° 164.794°
平近点角 287.754° 146.368°
近地点 474.388km 474.273km
远地点 475.99km 476.285km
周期 94.105分钟 94.107分钟
每日圈数 15.302089 15.301786
详细信息
固有亮度:
5
最大亮度:
2.5
卫星平台:
Starlink V1.0
覆盖范围:
全球
运营商:
太空探索技术公司
运营商所在国:
美国
制造商(研发单位):
太空探索技术公司
制造商所在国:
美国
使用方式:
暂无
卫星简介
Starlink 计划是 SpaceX 推出的全球卫星互联网项目,通过发射低轨道卫星,为全球尤其是偏远地区提供高速、低延迟的互联网服务。自 2019 年起,Starlink 已部署数千颗卫星,旨在缩小全球数字鸿沟,推动互联网普及。该项目还为军事、航空等行业提供通信支持,带来广泛经济效益。
2D轨道图
3D轨道图
轨道高度分析图
轨道倾角分析图
轨道综合分析图
查看轨道综合分析图